Meteor 1-4 Rocket - Orbit

View from above orbital plane
View from above orbital plane
View from above satellite
View from above satellite

Ground track
Ground track

The orbit data is extracted from the following two-line orbital elements,

1 04394U 70037B   13142.11639847  .00004354  00000-0  21263-3 0  3039
2 04394 081.2465 308.0747 0053417 126.1154 234.5038 15.16747127338377
Epoch (UTC): 22 May 2013 02:47:36
Eccentricity: 0.0053417
inclination: 81.2465°
perigee height: 479 km
apogee height: 552 km
right ascension of ascending node: 308.0747°
argument of perigee: 126.1154°
revolutions per day: 15.16747127
mean anomaly at epoch: 234.5038°
orbit number at epoch: 33837

The dashed part of the orbit path shows where the satellite is in the earth's shadow,  

Developed and maintained by Chris Peat, Heavens-Above GmbH. Please read the updated FAQ before sending e-mail. Imprint. DLR